#timestamp,LO_Frequency,Hit,StdDev 
1696046415.3,286047001.9,N
1696046435.2,286046999.8,N
1696046455.0,286047000.5,N
1696046455.9,286047000.5,N
1696046475.8,286047000.3,N
1696046495.6,286046999.9,N
1696046515.4,286047000.6,N
1696046535.3,286047000.2,N
1696046555.1,286047000.3,N
1696046556.0,286047000.3,N
1696046575.8,286047000.8,N
1696046595.7,286047000.0,N
1696046615.5,286047000.3,N
1696046635.4,286047001.1,N
1696046655.2,286046998.8,N
1696046675.0,286046998.8,N
1696046675.9,286046998.8,N
1696046695.8,286046998.2,N
1696046715.6,286046999.9,N
1696046735.4,286047001.1,N
1696046755.3,286046998.1,N
1696046775.1,286047000.6,N
1696046795.9,286047000.7,N
1696046815.7,286046998.3,N
1696046835.5,286047001.1,N
1696046855.4,286046998.1,N
1696046875.2,286047000.8,N
1696046895.0,286047001.1,N
1696046895.9,286047001.1,N
1696046915.8,286047000.8,N
1696046935.6,286046998.2,N
1696046955.5,286047000.8,N
1696046975.3,286047000.4,N
1696046995.1,286046999.7,N
1696047015.9,286047000.2,N
1696047035.7,286047000.3,N
1696047055.5,286047000.7,N
1696047075.4,286047000.6,N
1696047095.2,286047011.9,Y
1696047115.1,286047000.2,P
1696047116.0,286047000.2,N
1696047135.8,286047000.0,N
1696047155.6,286047000.0,N
1696047175.5,286046999.9,N
1696047195.3,286046999.7,N
1696047215.2,286047002.7,Y
1696047235.9,286047000.2,P
1696047255.7,286046999.9,N
1696047275.6,286047000.2,N
1696047295.4,286047000.4,N
1696047315.2,286047000.0,N
1696047335.1,286047000.3,N
1696047336.0,286047000.3,N
1696047355.8,286046999.9,N
1696047375.7,286046999.8,N
1696047395.5,286047000.3,N
1696047415.3,286047001.1,Y
1696047435.2,286047000.3,P
1696047455.0,286047000.4,P
1696047455.9,286047000.4,P
1696047475.8,286047000.8,Y
1696047495.6,286047001.0,P
1696047515.4,286047001.0,N
1696047535.3,286047000.9,N
1696047555.1,286047000.5,N
1696047575.9,286047000.0,N
1696047595.7,286046999.7,N
1696047615.5,286047002.4,Y
1696047635.4,286047002.7,P
1696047655.2,286046999.7,N
1696047675.1,286046998.3,N
1696047676.0,286046998.3,N
1696047695.8,286047001.2,N
1696047715.6,286046998.1,N
1696047735.5,286046998.1,N
1696047755.3,286047001.0,N
1696047775.1,286047002.1,N
1696047795.9,286047001.4,N
1696047815.7,286047001.7,N
1696047835.6,286047002.0,N
1696047855.4,286047001.9,N
1696047875.2,286047002.0,N
1696047895.1,286047001.9,N
1696047896.0,286047001.9,N
1696047915.8,286047001.8,N
1696047935.7,286047001.9,N
1696047955.5,286047002.0,N
1696047975.3,286047002.5,N
1696047995.2,286047002.7,N
1696048015.0,286047002.2,N
1696048015.9,286047002.2,N
1696048035.7,286047001.6,N
1696048055.6,286046998.6,N
1696048075.4,286046998.3,N
1696048095.3,286046999.5,N
1696048115.1,286046996.7,N
1696048135.8,286046997.4,N
1696048155.7,286046997.8,N
1696048175.5,286046997.0,N
1696048195.4,286046997.8,N
1696048215.2,286046997.2,N
1696048235.0,286046995.3,N
1696048235.9,286046995.3,N
1696048255.8,286046993.4,N
1696048275.6,286046995.1,N
1696048295.4,286046995.9,N
1696048315.3,286046995.8,N
1696048335.1,286046996.1,N
1696048355.9,286046993.5,N
1696048375.7,286046996.3,N
1696048395.5,286046996.4,N
1696048415.4,286046992.4,N
1696048435.2,286046991.9,N
1696048455.1,286046991.8,N
1696048456.0,286046991.8,N
1696048475.8,286046994.8,N
1696048495.6,286046992.9,N
1696048515.5,286046991.7,N
1696048535.3,286046992.1,N
1696048555.1,286046991.7,N
1696048575.9,286046991.7,N
1696048595.7,286046994.6,N
1696048615.6,286046994.4,N
1696048635.4,286046994.8,N
1696048655.2,286046992.4,Y
1696048675.1,286046999.5,P
1696048676.0,286046999.5,N
1696048695.8,286046997.7,N
1696048715.6,286046997.9,N
1696048735.5,286046995.4,N
1696048755.3,286046996.3,N
1696048775.2,286046993.8,Y
1696048795.9,286046997.8,P
1696048815.7,286046996.8,P
1696048835.6,286046998.7,P
1696048855.4,286046999.1,N
1696048875.3,286046997.4,Y
1696048895.1,286046998.6,P
1696048896.0,286046998.6,P
1696048915.8,286046998.8,P
1696048935.7,286047000.7,N
1696048955.5,286047011.9,Y
1696048975.3,286047000.4,P
1696048995.2,286047000.9,N
1696049015.0,286047000.7,N
1696049015.9,286047000.7,N
1696049035.8,286046999.9,N
1696049055.6,286047000.0,N
1696049075.5,286046999.9,N
1696049095.3,286046998.1,Y
1696049115.1,286046999.9,P
1696049135.9,286047000.6,P
1696049155.7,286046998.8,P
1696049175.6,286046998.1,N
1696049195.4,286047000.7,N
1696049215.3,286047000.4,N
1696049235.1,286047000.9,N
1696049236.0,286047000.9,N
1696049255.8,286046999.9,N
1696049275.7,286047002.4,N
1696049295.5,286046999.8,N
1696049315.4,286047000.3,N
1696049335.2,286047000.8,N
1696049355.0,286047000.9,N
1696049355.9,286047000.9,N
1696049375.8,286047000.5,N
1696049395.6,286047000.9,N
1696049415.5,286047000.3,N
1696049435.3,286047000.4,N
1696049455.1,286047000.7,N
1696049475.9,286047001.2,N
1696049495.7,286047000.8,N
1696049515.5,286047002.4,N
1696049535.4,286047000.4,N
1696049555.2,286046998.1,N
1696049575.1,286046999.4,N
1696049576.0,286046999.4,N
1696049595.8,286046998.4,N
1696049615.7,286047000.9,N
1696049635.5,286046998.8,N
1696049655.3,286046998.9,N
1696049675.2,286046999.4,N
1696049695.0,286046998.9,N
1696049695.9,286046998.9,N
1696049715.8,286047001.1,N
1696049735.6,286046999.9,N
1696049755.4,286046999.9,N
1696049775.3,286046999.8,N
1696049795.1,286047000.1,N
1696049815.9,286046999.9,N
1696049835.7,286047000.2,N
1696049855.5,286047002.8,N
1696049875.4,286046999.9,N
1696049895.2,286046998.2,N
1696049915.1,286046999.6,N
1696049916.0,286046999.6,N
1696049935.8,286046996.5,Y
1696049955.7,286046999.5,P
1696049975.5,286046998.9,P
1696049995.3,286046998.9,N
